ラッセル第4彗星

94P/Russell 4 (2010)

English version
Home page
Updated on September 2, 2011

---------------------------------------------------------------------

・ プロフィール

・ 写真集

・ 軌道要素

The following orbital elements are taken from MPC 75717:

Epoch 2010 Mar. 25.0 TT = JDT 2455280.5
T 2010 Mar. 29.7464 TT                                  MPC
q   2.240269             (2000.0)            P               Q
n   0.1494008      Peri.   92.8437      -0.9546055      -0.2799475
a   3.517501       Node    70.9155      +0.2120694      -0.8786580
e   0.363108       Incl.    6.1823      +0.2091768      -0.3867681
P   6.60
From 961 observations 1984-2010, mean residual 0".6.

・ 星図

・ 光度変化

        H = 14.5  G = 0.15             [    ,-190]  (              〜2009年 9月20日)
        m1 = 3.0 + 5 logΔ + 35 log r  [-190, 180]  (2009年 9月20日〜2010年 9月25日)
        H = 14.5  G = 0.15             [ 180,    ]  (2010年 9月25日〜              )

---------------------------------------------------------------------

軌道要素はMPCのEphemerides and Orbital Elementsに掲載されたものです。
星図はステラナビゲータ Ver.8 (アストロアーツ) で作成したものです。
光度グラフはComet for Windowsで作成したものです。

---------------------------------------------------------------------

Copyright(C) Seiichi Yoshida (comet@aerith.net). All rights reserved.